{"data":{"norad_id":65257,"intl_designator":"2025-179Y","name":"STARLINK-34966","alt_names":[],"object_type":"PAYLOAD","status":"ACTIVE","operator":null,"country":"US","launch_date":"2025-08-18","launch_site_code":"AFWTR","launch_vehicle":null,"mission":null,"orbit_class":"UNKNOWN","rcs_meters":null,"size_class":null,"mass_kg":null,"dimensions":null,"purposes":["comms"],"wikipedia_slug":null,"has_3d_model":false,"image_url":null,"decayed_at":null,"tle_current":{"epoch":"2026-09-20T13:58:23.983392Z","epoch_age_seconds":110516,"freshness":"FRESH","line1":"1 65257U 25179Y   26263.58222203  .00009846  00000+0  30688-3 0  9996","line2":"2 65257  97.2825 302.8799 0000834 120.6373 239.4952 15.33447390 61432","mean_motion":15.3344739,"eccentricity":8.34e-5,"inclination_deg":97.2825,"raan_deg":302.8799,"arg_perigee_deg":120.6373,"mean_anomaly_deg":239.4952,"bstar":0.00030688,"rev_number":6143,"period_min":93.906058296529,"perigee_km":464.96530119538,"apogee_km":466.10682586237,"semimajor_km":6843.6730635289,"source":"CELESTRAK","updated_at":"2026-09-21T09:00:35.562472Z"}}}